Location: Antichan
(42.9728°N, 0.6667°E)
Time: 14:16:15
(UTC+00:00)

NOSS 3-2 (A) - Pass Details

Date: 15 August 2020
Orbit: 795 x 1413 km, 63.4° (Epoch: 19 September)

Event Time Altitude Azimuth Distance (km) Brightness Sun altitude
Rises 19:46:29 0° 209° (SSW) 3,321 6.3 -8.8°
Reaches altitude 10° 19:48:48 10° 208° (SSW) 2,430 5.6 -9.1°
Maximum altitude 19:54:21 77° 123° (ESE) 921 3.3 -10.0°
Drops below altitude 10° 20:00:42 10° 39° (NE) 2,764 5.8 -11.0°
Sets 20:03:30 0° 38° (NE) 3,813 6.5 -11.5°
